This is the latest recevied weather packets stored in our database for station/object XE2VP-WX. If no packets are shown the sender has not sent any weather packets the latest 1 day(s).
| Time | Temp. | Humidity | Pressure | Rain* | Wind** | Luminosity | Snow |
|---|---|---|---|---|---|---|---|
| 1777992002 | 25° C | 58% | 940.2 hPa | 0 mm | 1.34 m/s, 250° | 419 W/m² | - |
| 1777991942 | 25° C | 58% | 940.2 hPa | 0 mm | 1.34 m/s, 252° | 417 W/m² | - |
| 1777991882 | 25° C | 58% | 940.2 hPa | 0 mm | 1.34 m/s, 251° | 416 W/m² | - |
| 1777991822 | 25° C | 58% | 940.2 hPa | 0 mm | 1.34 m/s, 246° | 416 W/m² | - |
| 1777991762 | 25° C | 58% | 940.2 hPa | 0 mm | 1.34 m/s, 235° | 412 W/m² | - |
| 1777991702 | 25° C | 58% | 940.2 hPa | 0 mm | 1.34 m/s, 267° | 411 W/m² | - |
| 1777991642 | 25° C | 59% | 940.2 hPa | 0 mm | 1.34 m/s, 256° | 405 W/m² | - |
| 1777991581 | 25° C | 59% | 940.2 hPa | 0 mm | 1.34 m/s, 277° | 401 W/m² | - |
| 1777991522 | 25° C | 59% | 940.2 hPa | 0 mm | 1.34 m/s, 236° | 400 W/m² | - |
| 1777991462 | 25° C | 59% | 940.2 hPa | 0 mm | 1.34 m/s, 264° | 400 W/m² | - |
| 1777991402 | 25° C | 59% | 940.2 hPa | 0 mm | 1.34 m/s, 240° | 399 W/m² | - |
| 1777991342 | 25° C | 59% | 940.2 hPa | 0 mm | 0.89 m/s, 254° | 393 W/m² | - |
| 1777991282 | 25° C | 59% | 940.2 hPa | 0 mm | 0.89 m/s, 250° | 391 W/m² | - |
| 1777991222 | 25° C | 59% | 940.2 hPa | 0 mm | 0.89 m/s, 224° | 384 W/m² | - |
| 1777991162 | 25° C | 59% | 940.1 hPa | 0 mm | 0.89 m/s, 266° | 380 W/m² | - |
| 1777991102 | 25.56° C | 59% | 940.1 hPa | 0 mm | 0.89 m/s, 159° | 375 W/m² | - |
| 1777991042 | 25.56° C | 58% | 940.1 hPa | 0 mm | 0.89 m/s, 245° | 371 W/m² | - |
| 1777990982 | 25.56° C | 58% | 940.1 hPa | 0 mm | 0.89 m/s, 303° | 369 W/m² | - |
| 1777990922 | 25° C | 58% | 940.2 hPa | 0 mm | 0.89 m/s, 251° | 366 W/m² | - |
| 1777990862 | 25° C | 59% | 940.2 hPa | 0 mm | 0.89 m/s, 0° | 364 W/m² | - |
| 1777990802 | 25° C | 59% | 940.2 hPa | 0 mm | 0.89 m/s, 248° | 359 W/m² | - |
| 1777990742 | 25° C | 59% | 940.2 hPa | 0 mm | 0.89 m/s, 44° | 352 W/m² | - |
| 1777990682 | 25° C | 59% | 940.2 hPa | 0 mm | 0.89 m/s, 277° | 346 W/m² | - |
| 1777990622 | 25° C | 59% | 940.1 hPa | 0 mm | 0.89 m/s, 249° | 354 W/m² | - |
| 1777990563 | 25° C | 59% | 940.2 hPa | 0 mm | 0.89 m/s, 236° | 354 W/m² | - |
* Rain latest hour (hover to see other rain measurements)
** Current wind speed in m/s (hover to see current wind gust speed)